Time,TemperatureF,DewpointF,PressureIn,WindDirection,WindDirectionDegrees,WindSpeedMPH,WindSpeedGustMPH,Humidity,HourlyPrecipIn,Conditions,Clouds,dailyrainin,SoftwareType,DateUTC
2013-06-21 00:01:00,69.7,41.4,29.88,NW,310,10.0,13.0,36,0.00,,,0.00,WUHU216DAVISVP2,2013-06-21 07:01:00,
2013-06-21 00:06:00,69.5,41.2,29.88,NW,316,6.0,13.0,36,0.00,,,0.00,WUHU216DAVISVP2,2013-06-21 07:06:00,
2013-06-21 00:11:00,69.4,41.1,29.88,NW,307,11.0,14.0,36,0.00,,,0.00,WUHU216DAVISVP2,2013-06-21 07:11:00,
2013-06-21 00:16:00,69.2,40.9,29.88,WNW,291,6.0,14.0,36,0.00,,,0.00,WUHU216DAVISVP2,2013-06-21 07:16:00,
2013-06-21 00:21:00,68.9,40.7,29.88,NW,319,8.0,13.0,36,0.00,,,0.00,WUHU216DAVISVP2,2013-06-21 07:21:00,
2013-06-21 00:26:00,68.6,41.3,29.88,NW,304,8.0,12.0,37,0.00,,,0.00,WUHU216DAVISVP2,2013-06-21 07:26:00,
2013-06-21 00:31:00,68.4,41.1,29.88,NW,320,3.0,12.0,37,0.00,,,0.00,WUHU216DAVISVP2,2013-06-21 07:31:00,
2013-06-21 00:36:00,68.1,40.7,29.88,WNW,284,7.0,12.0,37,0.00,,,0.00,WUHU216DAVISVP2,2013-06-21 07:36:00,
2013-06-21 00:41:00,67.8,41.1,29.88,NW,304,3.0,11.0,38,0.00,,,0.00,WUHU216DAVISVP2,2013-06-21 07:41:00,
2013-06-21 00:46:00,67.5,40.8,29.88,NW,304,8.0,11.0,38,0.00,,,0.00,WUHU216DAVISVP2,2013-06-21 07:46:00,
2013-06-21 00:51:00,67.3,40.7,29.88,NW,322,7.0,9.0,38,0.00,,,0.00,WUHU216DAVISVP2,2013-06-21 07:51:00,
2013-06-21 00:56:00,67.0,41.1,29.88,NW,311,8.0,9.0,39,0.00,,,0.00,WUHU216DAVISVP2,2013-06-21 07:56:00,
2013-06-21 01:01:00,66.7,40.8,29.87,WNW,298,5.0,9.0,39,0.00,,,0.00,WUHU216DAVISVP2,2013-06-21 08:01:00,
2013-06-21 01:06:00,66.3,41.1,29.88,NW,312,7.0,9.0,40,0.00,,,0.00,WUHU216DAVISVP2,2013-06-21 08:06:00,
2013-06-21 01:11:00,66.0,41.5,29.88,NW,321,4.0,8.0,41,0.00,,,0.00,WUHU216DAVISVP2,2013-06-21 08:11:00,
2013-06-21 01:16:00,65.6,41.8,29.87,NW,323,0.0,9.0,42,0.00,,,0.00,WUHU216DAVISVP2,2013-06-21 08:16:00,
2013-06-21 01:21:00,65.3,41.5,29.87,NW,315,6.0,11.0,42,0.00,,,0.00,WUHU216DAVISVP2,2013-06-21 08:21:00,
2013-06-21 01:26:00,65.1,41.3,29.87,NW,315,5.0,11.0,42,0.00,,,0.00,WUHU216DAVISVP2,2013-06-21 08:26:00,
2013-06-21 01:31:00,64.9,41.9,29.87,NW,310,7.0,9.0,43,0.00,,,0.00,WUHU216DAVISVP2,2013-06-21 08:31:00,
2013-06-21 01:36:00,64.8,42.4,29.87,NW,306,7.0,8.0,44,0.00,,,0.00,WUHU216DAVISVP2,2013-06-21 08:36:00,
2013-06-21 01:41:00,64.6,42.2,29.87,NW,307,11.0,11.0,44,0.00,,,0.00,WUHU216DAVISVP2,2013-06-21 08:41:00,
2013-06-21 01:46:00,64.5,42.1,29.87,WNW,284,7.0,11.0,44,0.00,,,0.00,WUHU216DAVISVP2,2013-06-21 08:46:00,
2013-06-21 01:51:00,64.2,42.4,29.87,NW,310,6.0,11.0,45,0.00,,,0.00,WUHU216DAVISVP2,2013-06-21 08:51:00,
2013-06-21 01:56:00,64.1,42.3,29.87,NW,317,5.0,10.0,45,0.00,,,0.00,WUHU216DAVISVP2,2013-06-21 08:56:00,
2013-06-21 02:01:00,64.0,42.8,29.86,WNW,301,6.0,10.0,46,0.00,,,0.00,WUHU216DAVISVP2,2013-06-21 09:01:00,
2013-06-21 02:06:00,63.9,42.7,29.86,NW,315,4.0,10.0,46,0.00,,,0.00,WUHU216DAVISVP2,2013-06-21 09:06:00,
2013-06-21 02:11:00,63.9,42.7,29.86,NW,304,6.0,10.0,46,0.00,,,0.00,WUHU216DAVISVP2,2013-06-21 09:11:00,
2013-06-21 02:16:00,63.9,42.7,29.86,NW,307,7.0,10.0,46,0.00,,,0.00,WUHU216DAVISVP2,2013-06-21 09:16:00,
2013-06-21 02:21:00,63.9,42.7,29.86,NNW,327,2.0,10.0,46,0.00,,,0.00,WUHU216DAVISVP2,2013-06-21 09:21:00,
2013-06-21 02:26:00,63.8,43.2,29.86,NW,322,6.0,10.0,47,0.00,,,0.00,WUHU216DAVISVP2,2013-06-21 09:26:00,
2013-06-21 02:31:00,63.6,43.0,29.86,NNW,342,2.0,9.0,47,0.00,,,0.00,WUHU216DAVISVP2,2013-06-21 09:31:00,
2013-06-21 02:36:00,63.5,42.9,29.86,NNW,327,5.0,8.0,47,0.00,,,0.00,WUHU216DAVISVP2,2013-06-21 09:36:00,
2013-06-21 02:41:00,63.3,43.3,29.86,NW,320,3.0,7.0,48,0.00,,,0.00,WUHU216DAVISVP2,2013-06-21 09:41:00,
2013-06-21 02:46:00,63.0,43.0,29.86,NW,324,1.0,6.0,48,0.00,,,0.00,WUHU216DAVISVP2,2013-06-21 09:46:00,
2013-06-21 02:51:00,62.5,43.6,29.86,NW,324,3.0,5.0,50,0.00,,,0.00,WUHU216DAVISVP2,2013-06-21 09:51:00,
2013-06-21 02:56:00,61.9,43.6,29.86,NW,324,3.0,5.0,51,0.00,,,0.00,WUHU216DAVISVP2,2013-06-21 09:56:00,
2013-06-21 03:01:00,61.5,43.7,29.86,NW,324,6.0,6.0,52,0.00,,,0.00,WUHU216DAVISVP2,2013-06-21 10:01:00,
2013-06-21 03:06:00,61.5,43.7,29.86,NW,324,0.0,6.0,52,0.00,,,0.00,WUHU216DAVISVP2,2013-06-21 10:06:00,
2013-06-21 03:11:00,61.5,43.8,29.87,NW,318,0.0,7.0,52,0.00,,,0.00,WUHU216DAVISVP2,2013-06-21 10:11:00,
2013-06-21 03:16:00,61.3,43.6,29.86,NW,318,0.0,7.0,52,0.00,,,0.00,WUHU216DAVISVP2,2013-06-21 10:16:00,
2013-06-21 03:21:00,60.9,43.7,29.86,NW,318,2.0,5.0,53,0.00,,,0.00,WUHU216DAVISVP2,2013-06-21 10:21:00,
2013-06-21 03:26:00,60.5,43.8,29.86,NW,318,0.0,4.0,54,0.00,,,0.00,WUHU216DAVISVP2,2013-06-21 10:26:00,
2013-06-21 03:31:00,60.3,44.6,29.86,NW,318,0.0,4.0,56,0.00,,,0.00,WUHU216DAVISVP2,2013-06-21 10:31:00,
2013-06-21 03:36:00,59.7,44.0,29.86,NW,318,0.0,3.0,56,0.00,,,0.00,WUHU216DAVISVP2,2013-06-21 10:36:00,
2013-06-21 03:41:00,59.2,44.4,29.86,NW,318,0.0,2.0,58,0.00,,,0.00,WUHU216DAVISVP2,2013-06-21 10:41:00,
2013-06-21 03:46:00,59.2,44.4,29.86,NW,318,0.0,3.0,58,0.00,,,0.00,WUHU216DAVISVP2,2013-06-21 10:46:00,
2013-06-21 03:51:00,59.0,44.8,29.86,NW,318,3.0,3.0,59,0.00,,,0.00,WUHU216DAVISVP2,2013-06-21 10:51:00,
2013-06-21 03:56:00,58.8,44.6,29.86,NW,318,0.0,4.0,59,0.00,,,0.00,WUHU216DAVISVP2,2013-06-21 10:56:00,
2013-06-21 04:01:00,58.6,44.4,29.86,NW,318,0.0,4.0,59,0.00,,,0.00,WUHU216DAVISVP2,2013-06-21 11:01:00,
2013-06-21 04:06:00,58.6,44.4,29.86,NW,321,1.0,5.0,59,0.00,,,0.00,WUHU216DAVISVP2,2013-06-21 11:06:00,
2013-06-21 04:11:00,58.5,44.8,29.86,NW,321,1.0,5.0,60,0.00,,,0.00,WUHU216DAVISVP2,2013-06-21 11:11:00,
2013-06-21 04:16:00,58.3,45.0,29.86,NW,321,0.0,5.0,61,0.00,,,0.00,WUHU216DAVISVP2,2013-06-21 11:16:00,
2013-06-21 04:21:00,58.0,45.2,29.86,NW,321,0.0,5.0,62,0.00,,,0.00,WUHU216DAVISVP2,2013-06-21 11:21:00,
2013-06-21 04:26:00,57.7,44.9,29.86,NW,321,0.0,3.0,62,0.00,,,0.00,WUHU216DAVISVP2,2013-06-21 11:26:00,
2013-06-21 04:31:00,57.3,44.9,29.86,NW,321,0.0,0.0,63,0.00,,,0.00,WUHU216DAVISVP2,2013-06-21 11:31:00,
2013-06-21 04:36:00,56.8,44.9,29.86,NW,321,0.0,0.0,64,0.00,,,0.00,WUHU216DAVISVP2,2013-06-21 11:36:00,
2013-06-21 04:41:00,56.7,45.2,29.86,NW,321,0.0,0.0,65,0.00,,,0.00,WUHU216DAVISVP2,2013-06-21 11:41:00,
2013-06-21 04:46:00,57.0,45.5,29.86,NW,321,0.0,1.0,65,0.00,,,0.00,WUHU216DAVISVP2,2013-06-21 11:46:00,
2013-06-21 04:51:00,56.9,45.4,29.86,NW,321,1.0,2.0,65,0.00,,,0.00,WUHU216DAVISVP2,2013-06-21 11:51:00,
2013-06-21 04:56:00,56.6,45.5,29.87,NW,321,1.0,2.0,66,0.00,,,0.00,WUHU216DAVISVP2,2013-06-21 11:56:00,
2013-06-21 05:01:00,56.8,45.7,29.87,NW,321,0.0,2.0,66,0.00,,,0.00,WUHU216DAVISVP2,2013-06-21 12:01:00,
2013-06-21 05:06:00,56.4,45.7,29.86,NW,321,0.0,2.0,67,0.00,,,0.00,WUHU216DAVISVP2,2013-06-21 12:06:00,
2013-06-21 05:11:00,56.0,45.3,29.87,NW,321,0.0,1.0,67,0.00,,,0.00,WUHU216DAVISVP2,2013-06-21 12:11:00,
2013-06-21 05:16:00,55.8,45.5,29.87,NW,321,0.0,0.0,68,0.00,,,0.00,WUHU216DAVISVP2,2013-06-21 12:16:00,
2013-06-21 05:21:00,55.9,45.6,29.87,NW,321,0.0,0.0,68,0.00,,,0.00,WUHU216DAVISVP2,2013-06-21 12:21:00,
2013-06-21 05:26:00,55.8,45.9,29.87,NW,321,0.0,0.0,69,0.00,,,0.00,WUHU216DAVISVP2,2013-06-21 12:26:00,
2013-06-21 05:31:00,55.6,45.7,29.87,NW,321,0.0,0.0,69,0.00,,,0.00,WUHU216DAVISVP2,2013-06-21 12:31:00,
2013-06-21 05:36:00,55.6,45.7,29.87,NW,321,0.0,0.0,69,0.00,,,0.00,WUHU216DAVISVP2,2013-06-21 12:36:00,
2013-06-21 05:41:00,55.5,46.0,29.88,NW,321,0.0,1.0,70,0.00,,,0.00,WUHU216DAVISVP2,2013-06-21 12:41:00,
2013-06-21 05:46:00,55.5,46.0,29.88,NW,321,0.0,1.0,70,0.00,,,0.00,WUHU216DAVISVP2,2013-06-21 12:46:00,
2013-06-21 05:51:00,55.5,46.0,29.88,NW,321,0.0,2.0,70,0.00,,,0.00,WUHU216DAVISVP2,2013-06-21 12:51:00,
2013-06-21 05:56:00,56.0,46.1,29.88,NW,321,1.0,4.0,69,0.00,,,0.00,WUHU216DAVISVP2,2013-06-21 12:56:00,
2013-06-21 06:01:00,56.5,46.2,29.89,NW,321,4.0,4.0,68,0.00,,,0.00,WUHU216DAVISVP2,2013-06-21 13:01:00,
2013-06-21 06:06:00,56.9,45.8,29.89,NW,321,1.0,4.0,66,0.00,,,0.00,WUHU216DAVISVP2,2013-06-21 13:06:00,
2013-06-21 06:11:00,57.4,45.9,29.89,NW,321,2.0,5.0,65,0.00,,,0.00,WUHU216DAVISVP2,2013-06-21 13:11:00,
2013-06-21 06:16:00,58.0,46.4,29.89,WNW,292,4.0,6.0,65,0.00,,,0.00,WUHU216DAVISVP2,2013-06-21 13:16:00,
2013-06-21 06:21:00,58.3,46.2,29.89,WNW,292,3.0,6.0,64,0.00,,,0.00,WUHU216DAVISVP2,2013-06-21 13:21:00,
2013-06-21 06:26:00,58.4,45.8,29.89,WNW,293,0.0,5.0,63,0.00,,,0.00,WUHU216DAVISVP2,2013-06-21 13:26:00,
2013-06-21 06:31:00,58.5,46.4,29.89,NW,310,3.0,7.0,64,0.00,,,0.00,WUHU216DAVISVP2,2013-06-21 13:31:00,
2013-06-21 06:36:00,58.6,46.5,29.90,NW,310,2.0,7.0,64,0.00,,,0.00,WUHU216DAVISVP2,2013-06-21 13:36:00,
2013-06-21 06:41:00,58.7,46.1,29.90,NW,310,4.0,4.0,63,0.00,,,0.00,WUHU216DAVISVP2,2013-06-21 13:41:00,
2013-06-21 06:46:00,58.7,46.1,29.90,NW,310,0.0,4.0,63,0.00,,,0.00,WUHU216DAVISVP2,2013-06-21 13:46:00,
2013-06-21 06:51:00,58.9,46.7,29.90,NW,310,3.0,4.0,64,0.00,,,0.00,WUHU216DAVISVP2,2013-06-21 13:51:00,
2013-06-21 06:56:00,59.1,47.1,29.90,NW,310,0.0,5.0,64,0.00,,,0.00,WUHU216DAVISVP2,2013-06-21 13:56:00,
2013-06-21 07:01:00,59.3,47.3,29.90,NW,306,3.0,5.0,64,0.00,,,0.00,WUHU216DAVISVP2,2013-06-21 14:01:00,
2013-06-21 07:06:00,59.6,47.1,29.90,NW,306,3.0,5.0,63,0.00,,,0.00,WUHU216DAVISVP2,2013-06-21 14:06:00,
2013-06-21 07:12:00,59.9,47.4,29.90,NW,306,0.0,5.0,63,0.00,,,0.00,WUHU216DAVISVP2,2013-06-21 14:12:00,
2013-06-21 07:17:00,60.2,47.7,29.91,NW,325,3.0,6.0,63,0.00,,,0.00,WUHU216DAVISVP2,2013-06-21 14:17:00,
2013-06-21 07:21:00,60.5,47.6,29.91,NW,304,0.0,6.0,62,0.00,,,0.00,WUHU216DAVISVP2,2013-06-21 14:21:00,
2013-06-21 07:26:00,60.9,47.9,29.91,NNW,333,4.0,9.0,62,0.00,,,0.00,WUHU216DAVISVP2,2013-06-21 14:26:00,
2013-06-21 07:31:00,61.4,48.0,29.91,NW,316,5.0,9.0,61,0.00,,,0.00,WUHU216DAVISVP2,2013-06-21 14:31:00,
2013-06-21 07:36:00,61.7,48.3,29.91,NW,319,5.0,8.0,61,0.00,,,0.00,WUHU216DAVISVP2,2013-06-21 14:36:00,
2013-06-21 07:41:00,62.2,49.0,29.91,NW,315,5.0,9.0,62,0.00,,,0.00,WUHU216DAVISVP2,2013-06-21 14:41:00,
2013-06-21 07:46:00,62.7,48.6,29.91,NW,319,5.0,10.0,60,0.00,,,0.00,WUHU216DAVISVP2,2013-06-21 14:46:00,
2013-06-21 07:51:00,63.3,49.2,29.91,NNW,337,5.0,10.0,60,0.00,,,0.00,WUHU216DAVISVP2,2013-06-21 14:51:00,
2013-06-21 07:56:00,64.1,49.5,29.91,NNW,329,6.0,9.0,59,0.00,,,0.00,WUHU216DAVISVP2,2013-06-21 14:56:00,
2013-06-21 08:01:00,64.9,49.9,29.91,NW,311,7.0,11.0,58,0.00,,,0.00,WUHU216DAVISVP2,2013-06-21 15:01:00,
2013-06-21 08:07:00,65.3,49.8,29.91,WNW,283,9.0,11.0,57,0.00,,,0.00,WUHU216DAVISVP2,2013-06-21 15:07:00,
2013-06-21 08:12:00,65.8,49.8,29.91,NW,310,8.0,11.0,56,0.00,,,0.00,WUHU216DAVISVP2,2013-06-21 15:12:00,
2013-06-21 08:17:00,66.2,49.2,29.91,WNW,302,9.0,17.0,54,0.00,,,0.00,WUHU216DAVISVP2,2013-06-21 15:17:00,
2013-06-21 08:22:00,66.6,49.5,29.92,NNW,331,6.0,17.0,54,0.00,,,0.00,WUHU216DAVISVP2,2013-06-21 15:22:00,
2013-06-21 08:27:00,67.2,50.1,29.92,WNW,296,7.0,12.0,54,0.00,,,0.00,WUHU216DAVISVP2,2013-06-21 15:27:00,
2013-06-21 08:32:00,67.8,49.6,29.92,NW,309,7.0,13.0,52,0.00,,,0.00,WUHU216DAVISVP2,2013-06-21 15:32:00,
2013-06-21 08:37:00,68.0,49.3,29.92,WNW,292,9.0,13.0,51,0.00,,,0.00,WUHU216DAVISVP2,2013-06-21 15:37:00,
2013-06-21 08:42:00,68.2,49.4,29.92,NW,311,7.0,15.0,51,0.00,,,0.00,WUHU216DAVISVP2,2013-06-21 15:42:00,
2013-06-21 08:47:00,68.5,49.2,29.92,NNW,329,7.0,15.0,50,0.00,,,0.00,WUHU216DAVISVP2,2013-06-21 15:47:00,
2013-06-21 08:52:00,68.8,49.5,29.92,NW,320,7.0,15.0,50,0.00,,,0.00,WUHU216DAVISVP2,2013-06-21 15:52:00,
2013-06-21 08:57:00,69.0,49.1,29.92,NW,326,9.0,16.0,49,0.00,,,0.00,WUHU216DAVISVP2,2013-06-21 15:57:00,
2013-06-21 09:02:00,69.4,49.4,29.92,WNW,296,11.0,16.0,49,0.00,,,0.00,WUHU216DAVISVP2,2013-06-21 16:02:00,
2013-06-21 09:07:00,69.6,49.6,29.92,NW,304,13.0,15.0,49,0.00,,,0.00,WUHU216DAVISVP2,2013-06-21 16:07:00,
2013-06-21 09:12:00,69.9,49.3,29.92,NW,304,12.0,15.0,48,0.00,,,0.00,WUHU216DAVISVP2,2013-06-21 16:12:00,
2013-06-21 09:17:00,69.9,49.9,29.92,NNW,334,4.0,16.0,49,0.00,,,0.00,WUHU216DAVISVP2,2013-06-21 16:17:00,
2013-06-21 09:22:00,70.4,50.4,29.92,WNW,303,9.0,16.0,49,0.00,,,0.00,WUHU216DAVISVP2,2013-06-21 16:22:00,
2013-06-21 09:27:00,70.8,50.2,29.92,NW,304,5.0,14.0,48,0.00,,,0.00,WUHU216DAVISVP2,2013-06-21 16:27:00,
2013-06-21 09:32:00,70.9,49.7,29.92,NW,324,12.0,16.0,47,0.00,,,0.00,WUHU216DAVISVP2,2013-06-21 16:32:00,
2013-06-21 09:37:00,70.9,50.3,29.92,NW,306,7.0,16.0,48,0.00,,,0.00,WUHU216DAVISVP2,2013-06-21 16:37:00,
2013-06-21 09:42:00,71.0,50.3,29.92,NW,313,13.0,14.0,48,0.00,,,0.00,WUHU216DAVISVP2,2013-06-21 16:42:00,
2013-06-21 09:47:00,71.4,50.1,29.92,NW,319,3.0,14.0,47,0.00,,,0.00,WUHU216DAVISVP2,2013-06-21 16:47:00,
2013-06-21 09:52:00,72.2,51.5,29.92,WNW,294,6.0,11.0,48,0.00,,,0.00,WUHU216DAVISVP2,2013-06-21 16:52:00,
2013-06-21 09:57:00,72.5,51.1,29.91,NNW,329,8.0,11.0,47,0.00,,,0.00,WUHU216DAVISVP2,2013-06-21 16:57:00,
2013-06-21 10:02:00,73.3,51.9,29.92,North,5,9.0,11.0,47,0.00,,,0.00,WUHU216DAVISVP2,2013-06-21 17:02:00,
2013-06-21 10:08:00,73.3,51.3,29.92,NNW,331,7.0,11.0,46,0.00,,,0.00,WUHU216DAVISVP2,2013-06-21 17:08:00,
2013-06-21 10:13:00,73.4,51.4,29.92,WNW,295,7.0,14.0,46,0.00,,,0.00,WUHU216DAVISVP2,2013-06-21 17:13:00,
2013-06-21 10:18:00,74.1,51.4,29.92,West,265,8.0,14.0,45,0.00,,,0.00,WUHU216DAVISVP2,2013-06-21 17:18:00,
2013-06-21 10:23:00,74.0,51.3,29.92,NW,311,5.0,12.0,45,0.00,,,0.00,WUHU216DAVISVP2,2013-06-21 17:23:00,
2013-06-21 10:28:00,74.6,51.2,29.92,NW,304,5.0,9.0,44,0.00,,,0.00,WUHU216DAVISVP2,2013-06-21 17:28:00,
2013-06-21 10:33:00,75.0,52.2,29.92,NNW,332,9.0,11.0,45,0.00,,,0.00,WUHU216DAVISVP2,2013-06-21 17:33:00,
2013-06-21 10:39:00,74.8,50.8,29.92,NW,321,11.0,14.0,43,0.00,,,0.00,WUHU216DAVISVP2,2013-06-21 17:39:00,
2013-06-21 10:44:00,74.5,51.2,29.92,NW,311,0.0,14.0,44,0.00,,,0.00,WUHU216DAVISVP2,2013-06-21 17:44:00,
2013-06-21 10:46:00,74.8,51.4,29.92,NE,35,7.0,14.0,44,0.00,,,0.00,WUHU216DAVISVP2,2013-06-21 17:46:00,
2013-06-21 10:48:00,75.3,52.5,29.92,NNW,342,6.0,12.0,45,0.00,,,0.00,WUHU216DAVISVP2,2013-06-21 17:48:00,
2013-06-21 10:53:00,75.8,51.7,29.92,WNW,293,4.0,13.0,43,0.00,,,0.00,WUHU216DAVISVP2,2013-06-21 17:53:00,
2013-06-21 10:58:00,75.7,51.6,29.92,West,281,7.0,13.0,43,0.00,,,0.00,WUHU216DAVISVP2,2013-06-21 17:58:00,
2013-06-21 11:03:00,75.8,51.7,29.92,NW,311,8.0,11.0,43,0.00,,,0.00,WUHU216DAVISVP2,2013-06-21 18:03:00,
2013-06-21 11:08:00,75.8,51.7,29.92,WNW,301,0.0,10.0,43,0.00,,,0.00,WUHU216DAVISVP2,2013-06-21 18:08:00,
2013-06-21 11:13:00,77.0,52.1,29.92,NW,321,0.0,10.0,42,0.00,,,0.00,WUHU216DAVISVP2,2013-06-21 18:13:00,
2013-06-21 11:18:00,77.1,52.9,29.92,NW,317,4.0,10.0,43,0.00,,,0.00,WUHU216DAVISVP2,2013-06-21 18:18:00,
2013-06-21 11:23:00,77.4,51.2,29.92,WNW,302,10.0,12.0,40,0.00,,,0.00,WUHU216DAVISVP2,2013-06-21 18:23:00,
2013-06-21 11:28:00,77.4,51.9,29.92,NW,304,7.0,12.0,41,0.00,,,0.00,WUHU216DAVISVP2,2013-06-21 18:28:00,
2013-06-21 11:33:00,77.6,52.6,29.92,WNW,302,5.0,11.0,42,0.00,,,0.00,WUHU216DAVISVP2,2013-06-21 18:33:00,
2013-06-21 11:38:00,77.8,52.8,29.92,NNW,333,6.0,10.0,42,0.00,,,0.00,WUHU216DAVISVP2,2013-06-21 18:38:00,
2013-06-21 11:44:00,78.4,52.7,29.92,NW,324,7.0,10.0,41,0.00,,,0.00,WUHU216DAVISVP2,2013-06-21 18:44:00,
2013-06-21 11:45:00,78.3,51.2,29.92,NW,322,1.0,9.0,39,0.00,,,0.00,WUHU216DAVISVP2,2013-06-21 18:45:00,
2013-06-21 11:50:00,78.5,52.1,29.92,NNW,331,3.0,9.0,40,0.00,,,0.00,WUHU216DAVISVP2,2013-06-21 18:50:00,
2013-06-21 11:55:00,78.4,52.0,29.92,WNW,296,1.0,11.0,40,0.00,,,0.00,WUHU216DAVISVP2,2013-06-21 18:55:00,
2013-06-21 12:00:00,79.6,53.1,29.92,NW,320,3.0,11.0,40,0.00,,,0.00,WUHU216DAVISVP2,2013-06-21 19:00:00,
2013-06-21 12:06:00,80.0,53.5,29.91,NW,317,5.0,7.0,40,0.00,,,0.00,WUHU216DAVISVP2,2013-06-21 19:06:00,
2013-06-21 12:11:00,80.4,53.9,29.91,WNW,296,8.0,9.0,40,0.00,,,0.00,WUHU216DAVISVP2,2013-06-21 19:11:00,
2013-06-21 12:16:00,80.5,51.7,29.91,NW,306,4.0,10.0,37,0.00,,,0.00,WUHU216DAVISVP2,2013-06-21 19:16:00,
2013-06-21 12:20:00,79.1,51.2,29.91,West,270,1.0,10.0,38,0.00,,,0.00,WUHU216DAVISVP2,2013-06-21 19:20:00,
2013-06-21 12:25:00,79.6,53.8,29.90,WNW,300,4.0,10.0,41,0.00,,,0.00,WUHU216DAVISVP2,2013-06-21 19:25:00,
2013-06-21 12:30:00,80.7,52.6,29.90,WNW,288,5.0,10.0,38,0.00,,,0.00,WUHU216DAVISVP2,2013-06-21 19:30:00,
2013-06-21 12:35:00,79.9,51.9,29.90,WNW,282,0.0,10.0,38,0.00,,,0.00,WUHU216DAVISVP2,2013-06-21 19:35:00,
2013-06-21 12:40:00,80.2,51.4,29.90,NW,306,7.0,9.0,37,0.00,,,0.00,WUHU216DAVISVP2,2013-06-21 19:40:00,
2013-06-21 12:42:00,80.4,53.8,29.90,WNW,303,0.0,9.0,40,0.00,,,0.00,WUHU216DAVISVP2,2013-06-21 19:42:00,
2013-06-21 12:47:00,81.5,53.3,29.90,NNW,336,5.0,10.0,38,0.00,,,0.00,WUHU216DAVISVP2,2013-06-21 19:47:00,
2013-06-21 12:52:00,81.9,53.7,29.90,WNW,300,7.0,10.0,38,0.00,,,0.00,WUHU216DAVISVP2,2013-06-21 19:52:00,
2013-06-21 12:57:00,82.9,53.1,29.90,NNW,339,4.0,10.0,36,0.00,,,0.00,WUHU216DAVISVP2,2013-06-21 19:57:00,
2013-06-21 13:02:00,82.7,52.9,29.90,NNW,329,0.0,10.0,36,0.00,,,0.00,WUHU216DAVISVP2,2013-06-21 20:02:00,
2013-06-21 13:04:00,83.0,56.1,29.90,NNW,329,1.0,10.0,40,0.00,,,0.00,WUHU216DAVISVP2,2013-06-21 20:04:00,
2013-06-21 13:09:00,82.8,54.5,29.90,NNW,336,2.0,6.0,38,0.00,,,0.00,WUHU216DAVISVP2,2013-06-21 20:09:00,
2013-06-21 13:11:00,83.0,54.8,29.90,NW,304,4.0,6.0,38,0.00,,,0.00,WUHU216DAVISVP2,2013-06-21 20:11:00,
2013-06-21 13:13:00,83.8,54.7,29.90,NNW,344,0.0,6.0,37,0.00,,,0.00,WUHU216DAVISVP2,2013-06-21 20:13:00,
2013-06-21 13:18:00,83.2,54.2,29.90,NW,317,6.0,10.0,37,0.00,,,0.00,WUHU216DAVISVP2,2013-06-21 20:18:00,
2013-06-21 13:23:00,83.3,54.2,29.90,NNW,340,5.0,10.0,37,0.00,,,0.00,WUHU216DAVISVP2,2013-06-21 20:23:00,
2013-06-21 13:28:00,83.5,54.4,29.90,NW,310,0.0,10.0,37,0.00,,,0.00,WUHU216DAVISVP2,2013-06-21 20:28:00,
2013-06-21 13:33:00,83.4,53.5,29.90,WNW,295,0.0,10.0,36,0.00,,,0.00,WUHU216DAVISVP2,2013-06-21 20:33:00,
2013-06-21 13:38:00,83.6,52.3,29.89,NW,309,3.0,10.0,34,0.00,,,0.00,WUHU216DAVISVP2,2013-06-21 20:38:00,
2013-06-21 13:44:00,84.0,53.4,29.89,NNW,347,5.0,13.0,35,0.00,,,0.00,WUHU216DAVISVP2,2013-06-21 20:44:00,
2013-06-21 13:49:00,84.4,53.6,29.89,NNW,330,8.0,13.0,35,0.00,,,0.00,WUHU216DAVISVP2,2013-06-21 20:49:00,
2013-06-21 13:54:00,84.0,51.7,29.89,WNW,294,1.0,12.0,33,0.00,,,0.00,WUHU216DAVISVP2,2013-06-21 20:54:00,
2013-06-21 13:59:00,83.5,51.2,29.89,West,263,8.0,11.0,33,0.00,,,0.00,WUHU216DAVISVP2,2013-06-21 20:59:00,
2013-06-21 14:03:00,84.9,53.3,29.89,WNW,292,9.0,9.0,34,0.00,,,0.00,WUHU216DAVISVP2,2013-06-21 21:03:00,
2013-06-21 14:04:00,85.0,53.4,29.89,NW,325,6.0,9.0,34,0.00,,,0.00,WUHU216DAVISVP2,2013-06-21 21:04:00,
2013-06-21 14:09:00,85.4,52.9,29.89,West,276,5.0,10.0,33,0.00,,,0.00,WUHU216DAVISVP2,2013-06-21 21:09:00,
2013-06-21 14:14:00,85.6,53.2,29.89,NNW,330,5.0,10.0,33,0.00,,,0.00,WUHU216DAVISVP2,2013-06-21 21:14:00,
2013-06-21 14:19:00,85.0,51.7,29.88,WNW,296,8.0,11.0,32,0.00,,,0.00,WUHU216DAVISVP2,2013-06-21 21:19:00,
2013-06-21 14:24:00,84.7,52.3,29.88,NW,315,5.0,11.0,33,0.00,,,0.00,WUHU216DAVISVP2,2013-06-21 21:24:00,
2013-06-21 14:29:00,85.9,53.3,29.88,NNW,333,2.0,10.0,33,0.00,,,0.00,WUHU216DAVISVP2,2013-06-21 21:29:00,
2013-06-21 14:34:00,86.1,52.8,29.88,NW,315,6.0,11.0,32,0.00,,,0.00,WUHU216DAVISVP2,2013-06-21 21:34:00,
2013-06-21 14:39:00,86.1,53.6,29.88,North,5,0.0,13.0,33,0.00,,,0.00,WUHU216DAVISVP2,2013-06-21 21:39:00,
2013-06-21 14:44:00,85.7,51.5,29.88,WNW,298,8.0,13.0,31,0.00,,,0.00,WUHU216DAVISVP2,2013-06-21 21:44:00,
2013-06-21 14:49:00,85.8,53.2,29.87,NW,310,0.0,13.0,33,0.00,,,0.00,WUHU216DAVISVP2,2013-06-21 21:49:00,
2013-06-21 14:54:00,87.0,51.7,29.87,NW,313,8.0,12.0,30,0.00,,,0.00,WUHU216DAVISVP2,2013-06-21 21:54:00,
2013-06-21 14:59:00,87.4,52.9,29.87,NW,326,6.0,12.0,31,0.00,,,0.00,WUHU216DAVISVP2,2013-06-21 21:59:00,
2013-06-21 15:04:00,87.6,53.1,29.87,NW,304,1.0,11.0,31,0.00,,,0.00,WUHU216DAVISVP2,2013-06-21 22:04:00,
2013-06-21 15:09:00,87.0,52.7,29.87,North,355,7.0,12.0,31,0.00,,,0.00,WUHU216DAVISVP2,2013-06-21 22:09:00,
2013-06-21 15:14:00,87.0,50.8,29.86,NW,304,8.0,14.0,29,0.00,,,0.00,WUHU216DAVISVP2,2013-06-21 22:14:00,
2013-06-21 15:19:00,87.0,52.6,29.86,NW,317,6.0,14.0,31,0.00,,,0.00,WUHU216DAVISVP2,2013-06-21 22:19:00,
2013-06-21 15:24:00,87.3,52.1,29.86,NW,321,8.0,13.0,30,0.00,,,0.00,WUHU216DAVISVP2,2013-06-21 22:24:00,
2013-06-21 15:29:00,87.8,52.4,29.86,NW,312,11.0,12.0,30,0.00,,,0.00,WUHU216DAVISVP2,2013-06-21 22:29:00,
2013-06-21 15:34:00,87.0,52.6,29.86,WNW,298,6.0,12.0,31,0.00,,,0.00,WUHU216DAVISVP2,2013-06-21 22:34:00,
2013-06-21 15:39:00,87.7,54.2,29.86,NW,313,10.0,13.0,32,0.00,,,0.00,WUHU216DAVISVP2,2013-06-21 22:39:00,
2013-06-21 15:44:00,87.8,51.5,29.85,North,355,8.0,14.0,29,0.00,,,0.00,WUHU216DAVISVP2,2013-06-21 22:44:00,
2013-06-21 15:49:00,88.2,49.9,29.85,NW,311,8.0,14.0,27,0.00,,,0.00,WUHU216DAVISVP2,2013-06-21 22:49:00,
2013-06-21 15:54:00,88.1,51.7,29.85,NNE,19,0.0,13.0,29,0.00,,,0.00,WUHU216DAVISVP2,2013-06-21 22:54:00,
2013-06-21 15:59:00,88.9,47.4,29.85,NNW,333,10.0,13.0,24,0.00,,,0.00,WUHU216DAVISVP2,2013-06-21 22:59:00,
2013-06-21 16:04:00,88.3,48.0,29.85,North,5,5.0,13.0,25,0.00,,,0.00,WUHU216DAVISVP2,2013-06-21 23:04:00,
2013-06-21 16:09:00,88.7,49.3,29.84,NNW,342,3.0,14.0,26,0.00,,,0.00,WUHU216DAVISVP2,2013-06-21 23:09:00,
2013-06-21 16:14:00,89.1,47.6,29.84,NW,326,8.0,14.0,24,0.00,,,0.00,WUHU216DAVISVP2,2013-06-21 23:14:00,
2013-06-21 16:19:00,89.0,48.5,29.84,NW,326,9.0,14.0,25,0.00,,,0.00,WUHU216DAVISVP2,2013-06-21 23:19:00,
2013-06-21 16:24:00,88.7,49.3,29.84,North,355,9.0,14.0,26,0.00,,,0.00,WUHU216DAVISVP2,2013-06-21 23:24:00,
2013-06-21 16:29:00,88.7,50.4,29.84,NW,322,10.0,14.0,27,0.00,,,0.00,WUHU216DAVISVP2,2013-06-21 23:29:00,
2013-06-21 16:34:00,89.1,49.7,29.84,West,273,9.0,14.0,26,0.00,,,0.00,WUHU216DAVISVP2,2013-06-21 23:34:00,
2013-06-21 16:39:00,88.4,51.0,29.84,NW,314,8.0,13.0,28,0.00,,,0.00,WUHU216DAVISVP2,2013-06-21 23:39:00,
2013-06-21 16:44:00,88.5,50.3,29.84,NW,306,10.0,14.0,27,0.00,,,0.00,WUHU216DAVISVP2,2013-06-21 23:44:00,
2013-06-21 16:49:00,88.8,51.5,29.83,NW,315,4.0,14.0,28,0.00,,,0.00,WUHU216DAVISVP2,2013-06-21 23:49:00,
2013-06-21 16:54:00,89.4,50.0,29.83,NW,326,6.0,13.0,26,0.00,,,0.00,WUHU216DAVISVP2,2013-06-21 23:54:00,
2013-06-21 16:59:00,88.8,51.4,29.83,North,351,2.0,13.0,28,0.00,,,0.00,WUHU216DAVISVP2,2013-06-21 23:59:00,
2013-06-21 17:04:00,89.0,49.6,29.83,NNW,328,7.0,14.0,26,0.00,,,0.00,WUHU216DAVISVP2,2013-06-22 00:04:00,
2013-06-21 17:09:00,89.1,50.7,29.83,NW,310,9.0,14.0,27,0.00,,,0.00,WUHU216DAVISVP2,2013-06-22 00:09:00,
2013-06-21 17:14:00,89.3,49.8,29.83,NNW,332,5.0,13.0,26,0.00,,,0.00,WUHU216DAVISVP2,2013-06-22 00:14:00,
2013-06-21 17:19:00,88.8,49.5,29.82,WNW,293,6.0,14.0,26,0.00,,,0.00,WUHU216DAVISVP2,2013-06-22 00:19:00,
2013-06-21 17:24:00,89.0,48.5,29.82,NW,305,8.0,14.0,25,0.00,,,0.00,WUHU216DAVISVP2,2013-06-22 00:24:00,
2013-06-21 17:29:00,88.7,48.3,29.82,NW,319,8.0,14.0,25,0.00,,,0.00,WUHU216DAVISVP2,2013-06-22 00:29:00,
2013-06-21 17:34:00,88.5,48.2,29.82,NW,307,11.0,14.0,25,0.00,,,0.00,WUHU216DAVISVP2,2013-06-22 00:34:00,
2013-06-21 17:39:00,88.7,48.3,29.81,NNW,330,11.0,14.0,25,0.00,,,0.00,WUHU216DAVISVP2,2013-06-22 00:39:00,
2013-06-21 17:44:00,88.5,47.1,29.81,NW,323,8.0,14.0,24,0.00,,,0.00,WUHU216DAVISVP2,2013-06-22 00:44:00,
2013-06-21 17:49:00,88.6,47.1,29.81,NW,310,11.0,14.0,24,0.00,,,0.00,WUHU216DAVISVP2,2013-06-22 00:49:00,
2013-06-21 17:54:00,88.5,47.0,29.81,NNW,331,8.0,13.0,24,0.00,,,0.00,WUHU216DAVISVP2,2013-06-22 00:54:00,
2013-06-21 17:59:00,88.6,47.1,29.81,NW,312,10.0,12.0,24,0.00,,,0.00,WUHU216DAVISVP2,2013-06-22 00:59:00,
2013-06-21 18:04:00,88.5,47.1,29.81,NW,311,7.0,13.0,24,0.00,,,0.00,WUHU216DAVISVP2,2013-06-22 01:04:00,
2013-06-21 18:09:00,88.5,47.0,29.81,NW,304,6.0,14.0,24,0.00,,,0.00,WUHU216DAVISVP2,2013-06-22 01:09:00,
2013-06-21 18:14:00,88.3,46.9,29.81,North,360,9.0,14.0,24,0.00,,,0.00,WUHU216DAVISVP2,2013-06-22 01:14:00,
2013-06-21 18:19:00,88.7,47.3,29.81,NW,309,10.0,11.0,24,0.00,,,0.00,WUHU216DAVISVP2,2013-06-22 01:19:00,
2013-06-21 18:24:00,88.6,46.1,29.81,WNW,297,10.0,11.0,23,0.00,,,0.00,WUHU216DAVISVP2,2013-06-22 01:24:00,
2013-06-21 18:29:00,88.2,44.5,29.81,NNW,328,4.0,12.0,22,0.00,,,0.00,WUHU216DAVISVP2,2013-06-22 01:29:00,
2013-06-21 18:34:00,88.0,45.5,29.81,NNW,344,4.0,12.0,23,0.00,,,0.00,WUHU216DAVISVP2,2013-06-22 01:34:00,
2013-06-21 18:39:00,88.0,45.5,29.81,NW,311,1.0,11.0,23,0.00,,,0.00,WUHU216DAVISVP2,2013-06-22 01:39:00,
2013-06-21 18:44:00,87.8,45.3,29.81,NW,319,6.0,13.0,23,0.00,,,0.00,WUHU216DAVISVP2,2013-06-22 01:44:00,
2013-06-21 18:49:00,87.7,46.4,29.81,NW,320,6.0,13.0,24,0.00,,,0.00,WUHU216DAVISVP2,2013-06-22 01:49:00,
2013-06-21 18:54:00,87.7,47.4,29.81,NW,309,6.0,10.0,25,0.00,,,0.00,WUHU216DAVISVP2,2013-06-22 01:54:00,
2013-06-21 18:59:00,87.3,47.1,29.81,NNW,328,0.0,9.0,25,0.00,,,0.00,WUHU216DAVISVP2,2013-06-22 01:59:00,
2013-06-21 19:04:00,86.9,46.8,29.81,WNW,284,6.0,9.0,25,0.00,,,0.00,WUHU216DAVISVP2,2013-06-22 02:04:00,
2013-06-21 19:09:00,86.6,47.5,29.81,NW,311,5.0,9.0,26,0.00,,,0.00,WUHU216DAVISVP2,2013-06-22 02:09:00,
2013-06-21 19:14:00,86.4,47.4,29.81,NW,308,4.0,8.0,26,0.00,,,0.00,WUHU216DAVISVP2,2013-06-22 02:14:00,
2013-06-21 19:19:00,86.1,48.2,29.81,NW,318,0.0,8.0,27,0.00,,,0.00,WUHU216DAVISVP2,2013-06-22 02:19:00,
2013-06-21 19:24:00,85.7,47.8,29.81,NW,306,7.0,8.0,27,0.00,,,0.00,WUHU216DAVISVP2,2013-06-22 02:24:00,
2013-06-21 19:29:00,85.4,48.6,29.81,NW,312,4.0,8.0,28,0.00,,,0.00,WUHU216DAVISVP2,2013-06-22 02:29:00,
2013-06-21 19:34:00,84.9,49.1,29.81,WNW,297,5.0,8.0,29,0.00,,,0.00,WUHU216DAVISVP2,2013-06-22 02:34:00,
2013-06-21 19:39:00,84.4,48.5,29.81,NW,315,6.0,9.0,29,0.00,,,0.00,WUHU216DAVISVP2,2013-06-22 02:39:00,
2013-06-21 19:44:00,84.0,49.1,29.81,NW,317,7.0,9.0,30,0.00,,,0.00,WUHU216DAVISVP2,2013-06-22 02:44:00,
2013-06-21 19:49:00,83.6,49.6,29.81,WNW,297,9.0,9.0,31,0.00,,,0.00,WUHU216DAVISVP2,2013-06-22 02:49:00,
2013-06-21 19:54:00,83.2,49.3,29.81,NW,325,5.0,10.0,31,0.00,,,0.00,WUHU216DAVISVP2,2013-06-22 02:54:00,
2013-06-21 19:59:00,82.7,48.8,29.81,NW,309,8.0,10.0,31,0.00,,,0.00,WUHU216DAVISVP2,2013-06-22 02:59:00,
2013-06-21 20:04:00,82.3,49.5,29.81,NW,309,5.0,9.0,32,0.00,,,0.00,WUHU216DAVISVP2,2013-06-22 03:04:00,
2013-06-21 20:09:00,81.9,49.1,29.81,NW,306,3.0,9.0,32,0.00,,,0.00,WUHU216DAVISVP2,2013-06-22 03:09:00,
2013-06-21 20:14:00,81.4,49.5,29.81,NW,311,0.0,9.0,33,0.00,,,0.00,WUHU216DAVISVP2,2013-06-22 03:14:00,
2013-06-21 20:19:00,81.1,49.1,29.81,NW,315,5.0,8.0,33,0.00,,,0.00,WUHU216DAVISVP2,2013-06-22 03:19:00,
2013-06-21 20:24:00,80.8,49.7,29.81,NW,313,4.0,8.0,34,0.00,,,0.00,WUHU216DAVISVP2,2013-06-22 03:24:00,
2013-06-21 20:29:00,80.4,49.3,29.81,NW,314,2.0,8.0,34,0.00,,,0.00,WUHU216DAVISVP2,2013-06-22 03:29:00,
2013-06-21 20:34:00,80.0,49.8,29.81,NW,313,6.0,8.0,35,0.00,,,0.00,WUHU216DAVISVP2,2013-06-22 03:34:00,
2013-06-21 20:39:00,79.6,49.4,29.81,NW,306,3.0,7.0,35,0.00,,,0.00,WUHU216DAVISVP2,2013-06-22 03:39:00,
2013-06-21 20:44:00,79.3,49.9,29.81,NW,306,0.0,7.0,36,0.00,,,0.00,WUHU216DAVISVP2,2013-06-22 03:44:00,
2013-06-21 20:49:00,79.0,49.8,29.81,NW,306,4.0,8.0,36,0.00,,,0.00,WUHU216DAVISVP2,2013-06-22 03:49:00,
2013-06-21 20:54:00,78.8,49.5,29.82,NW,307,0.0,8.0,36,0.00,,,0.00,WUHU216DAVISVP2,2013-06-22 03:54:00,
2013-06-21 20:59:00,78.4,49.8,29.82,NW,307,5.0,7.0,37,0.00,,,0.00,WUHU216DAVISVP2,2013-06-22 03:59:00,
2013-06-21 21:01:00,78.3,49.8,29.82,NW,307,0.0,7.0,37,0.00,,,0.00,WUHU216DAVISVP2,2013-06-22 04:01:00,
2013-06-21 21:06:00,78.0,50.3,29.82,NW,311,4.0,7.0,38,0.00,,,0.00,WUHU216DAVISVP2,2013-06-22 04:06:00,
2013-06-21 21:11:00,77.8,50.0,29.82,NW,311,3.0,7.0,38,0.00,,,0.00,WUHU216DAVISVP2,2013-06-22 04:11:00,
2013-06-21 21:16:00,77.5,49.9,29.82,NW,311,0.0,7.0,38,0.00,,,0.00,WUHU216DAVISVP2,2013-06-22 04:16:00,
2013-06-21 21:21:00,77.3,49.6,29.82,NW,311,4.0,6.0,38,0.00,,,0.00,WUHU216DAVISVP2,2013-06-22 04:21:00,
2013-06-21 21:26:00,77.1,49.5,29.82,NW,308,5.0,7.0,38,0.00,,,0.00,WUHU216DAVISVP2,2013-06-22 04:26:00,
2013-06-21 21:31:00,77.0,49.3,29.82,NW,309,6.0,8.0,38,0.00,,,0.00,WUHU216DAVISVP2,2013-06-22 04:31:00,
2013-06-21 21:36:00,76.9,49.2,29.82,NW,317,4.0,8.0,38,0.00,,,0.00,WUHU216DAVISVP2,2013-06-22 04:36:00,
2013-06-21 21:41:00,76.8,49.1,29.83,NW,306,5.0,7.0,38,0.00,,,0.00,WUHU216DAVISVP2,2013-06-22 04:41:00,
2013-06-21 21:46:00,76.5,49.6,29.83,NW,310,7.0,7.0,39,0.00,,,0.00,WUHU216DAVISVP2,2013-06-22 04:46:00,
2013-06-21 21:51:00,76.2,50.0,29.83,NW,304,5.0,8.0,40,0.00,,,0.00,WUHU216DAVISVP2,2013-06-22 04:51:00,
2013-06-21 21:56:00,75.9,49.8,29.83,NW,304,5.0,8.0,40,0.00,,,0.00,WUHU216DAVISVP2,2013-06-22 04:56:00,
2013-06-21 22:01:00,75.5,50.1,29.83,NW,309,5.0,8.0,41,0.00,,,0.00,WUHU216DAVISVP2,2013-06-22 05:01:00,
2013-06-21 22:06:00,75.2,49.8,29.83,NW,309,4.0,7.0,41,0.00,,,0.00,WUHU216DAVISVP2,2013-06-22 05:06:00,
2013-06-21 22:11:00,75.0,49.7,29.83,NW,309,7.0,7.0,41,0.00,,,0.00,WUHU216DAVISVP2,2013-06-22 05:11:00,
2013-06-21 22:16:00,74.9,49.6,29.83,NW,310,3.0,8.0,41,0.00,,,0.00,WUHU216DAVISVP2,2013-06-22 05:16:00,
2013-06-21 22:21:00,74.8,49.5,29.83,WNW,296,5.0,8.0,41,0.00,,,0.00,WUHU216DAVISVP2,2013-06-22 05:21:00,
2013-06-21 22:26:00,74.6,49.3,29.84,WNW,300,5.0,8.0,41,0.00,,,0.00,WUHU216DAVISVP2,2013-06-22 05:26:00,
2013-06-21 22:31:00,74.4,49.1,29.83,WNW,298,6.0,8.0,41,0.00,,,0.00,WUHU216DAVISVP2,2013-06-22 05:31:00,
2013-06-21 22:36:00,74.1,49.5,29.84,NW,304,7.0,8.0,42,0.00,,,0.00,WUHU216DAVISVP2,2013-06-22 05:36:00,
2013-06-21 22:41:00,73.8,49.9,29.84,WNW,298,5.0,8.0,43,0.00,,,0.00,WUHU216DAVISVP2,2013-06-22 05:41:00,
2013-06-21 22:46:00,73.6,49.7,29.84,WNW,288,4.0,8.0,43,0.00,,,0.00,WUHU216DAVISVP2,2013-06-22 05:46:00,
2013-06-21 22:51:00,73.2,49.9,29.83,WNW,297,4.0,8.0,44,0.00,,,0.00,WUHU216DAVISVP2,2013-06-22 05:51:00,
2013-06-21 22:56:00,72.7,50.7,29.83,NW,304,3.0,10.0,46,0.00,,,0.00,WUHU216DAVISVP2,2013-06-22 05:56:00,
2013-06-21 23:01:00,72.3,50.4,29.84,WNW,298,7.0,10.0,46,0.00,,,0.00,WUHU216DAVISVP2,2013-06-22 06:01:00,
2013-06-21 23:06:00,72.0,50.1,29.84,WNW,293,3.0,9.0,46,0.00,,,0.00,WUHU216DAVISVP2,2013-06-22 06:06:00,
2013-06-21 23:11:00,71.7,49.2,29.84,NW,309,3.0,10.0,45,0.00,,,0.00,WUHU216DAVISVP2,2013-06-22 06:11:00,
2013-06-21 23:16:00,71.6,49.1,29.83,NW,304,6.0,10.0,45,0.00,,,0.00,WUHU216DAVISVP2,2013-06-22 06:16:00,
2013-06-21 23:21:00,71.4,48.9,29.84,West,280,6.0,9.0,45,0.00,,,0.00,WUHU216DAVISVP2,2013-06-22 06:21:00,
2013-06-21 23:26:00,71.2,49.3,29.83,WNW,299,4.0,10.0,46,0.00,,,0.00,WUHU216DAVISVP2,2013-06-22 06:26:00,
2013-06-21 23:31:00,71.0,49.2,29.84,WNW,300,6.0,10.0,46,0.00,,,0.00,WUHU216DAVISVP2,2013-06-22 06:31:00,
2013-06-21 23:36:00,70.9,49.1,29.84,NW,306,8.0,12.0,46,0.00,,,0.00,WUHU216DAVISVP2,2013-06-22 06:36:00,
2013-06-21 23:41:00,70.8,49.0,29.84,NW,308,8.0,12.0,46,0.00,,,0.00,WUHU216DAVISVP2,2013-06-22 06:41:00,
2013-06-21 23:46:00,70.8,49.0,29.84,NW,304,7.0,11.0,46,0.00,,,0.00,WUHU216DAVISVP2,2013-06-22 06:46:00,
2013-06-21 23:51:00,70.8,49.0,29.83,NW,304,8.0,11.0,46,0.00,,,0.00,WUHU216DAVISVP2,2013-06-22 06:51:00,
2013-06-21 23:56:00,70.6,48.8,29.83,NW,317,10.0,11.0,46,0.00,,,0.00,WUHU216DAVISVP2,2013-06-22 06:56:00,